User: anonymous   Login
Location: Alberta Star Party
(51.6612°N, 112.9089°W)
Time: 00:51:34
(UTC-06:00)
Language:

AO-Echo - Orbit

View from above orbital plane
View from above orbital plane
View from above satellite
View from above satellite

Ground track
Ground track

The orbit data is extracted from the following two-line orbital elements,

1 28375U 04025K   18169.76916116 +.00000013 +00000-0 +17310-4 0  9998
2 28375 098.3853 101.1709 0081262 258.2787 100.9276 14.41889704734645
Epoch (UTC): 18 June 2018 18:27:35
Eccentricity: 0.0081262
inclination: 98.3853°
perigee height: 694 km
apogee height: 810 km
right ascension of ascending node: 101.1709°
argument of perigee: 258.2787°
revolutions per day: 14.41889704
mean anomaly at epoch: 100.9276°
orbit number at epoch: 73464

The dashed part of the orbit path shows where the satellite is in the earth's shadow,  

DLR